Regional Weather Roundup
Issued by NWS Sterling, VA

Home | Current Version | Previous Version | Graphics & Text | Print | Product List | Glossary On
Versions: 1 2 3 4 5 6 7 8 9 10 11 12 13 14 15 16 17 18 19 20 21 22 23 24 25 26 27 28
000
ASUS41 KLWX 191511
RWRLWX

REGIONAL WEATHER ROUNDUP
NATIONAL WEATHER SERVICE BALTIMORE MD/WASHINGTON DC
1000 AM EST MON FEB 19 2018

Note: "FAIR" indicates few or no clouds below 12,000 feet
with no significant weather and/or obstructions to visibility.
 TC=TEMPERATURE CELSIUS

 * =Non NWS site. Station does not report precipitation (e.g. rain,
    snow, etc.), thunder, or fog.

DCZ001-MDZ009-015-VAZ040>042-051-053>054-191600-
WASHINGTON METRO

CITY           SKY/WX    TMP DP  RH WIND       PRES   REMARKS
WASHINGTON NAT CLOUDY    42  40  92 S8        30.48F
DULLES         CLOUDY    40  38  93 S8        30.46R WCI  34
ANDREWS AFB    CLOUDY    41  37  87 S8        30.46F
FT BELVOIR     CLOUDY    41  38  88 SE6       30.48F
QUANTICO       CLOUDY    42  40  92 SW7       30.50S
COLLEGE PARK*  CLOUDY    41  37  84 S3        30.48S
LEESBURG*      CLOUDY    41  39  93 S10       30.46S WCI  35
MANASSAS*      CLOUDY    41  38  89 S6        30.48S
GAITHERSBURG*  CLOUDY    40  36  86 S7        30.46S

$$

MDZ006>007-011-014-191600-
BALTIMORE METRO

CITY           SKY/WX    TMP DP  RH WIND       PRES   REMARKS
BWI AIRPORT    CLOUDY    39  38  96 CALM      30.47S
MD SCIENCE CTR   N/A     40  38  93 MISG      30.49S
MARTIN STATE   CLOUDY    39  39 100 SE5       30.51R
ANNAPOLIS      CLOUDY    41  40  96 SE8       30.49R
FORT MEADE*    CLOUDY    37  36  93 CALM      30.50S

$$

MDZ012-015-019>023-191600-
MARYLAND EASTERN SHORE

CITY           SKY/WX    TMP DP  RH WIND       PRES   REMARKS
OCEAN CITY     FAIR      47  43  86 SE6       30.50F
SALISBURY      CLOUDY    46  42  86 SE6       30.49S
BAY BRIDGE AP* CLOUDY    43  39  87 S9        30.49S
CAMBRIDGE*     CLOUDY    45  41  87 S7        30.50R
EASTON*        PTSUNNY   45  37  76 S7        30.53R

$$

MDZ017>025-191600-
SOUTHERN MARYLAND

CITY           SKY/WX    TMP DP  RH WIND       PRES   REMARKS
PATUXENT RIVER CLOUDY    44  42  93 S8        30.48S
ST INIGOES     CLOUDY    44  31  60 VRB5      30.47F
LEONARDTOWN*   CLOUDY    43  39  87 S3        30.50F

$$

MDZ003>005-191600-
NORTH CENTRAL MARYLAND

CITY           SKY/WX    TMP DP  RH WIND       PRES   REMARKS
FREDERICK*     CLOUDY    41  36  81 S7        30.48S
HAGERSTOWN APT CLOUDY    43  35  73 S12       30.39S
WESTMINSTER*   CLOUDY    41  37  87 S10       30.43S WCI  35

$$

MDZ501>502-191600-
WESTERN MARYLAND

CITY           SKY/WX    TMP DP  RH WIND       PRES   REMARKS
OAKLAND*       CLOUDY    43  43 100 S13       30.24F
CUMBERLAND*    CLOUDY    43  37  81 CALM      30.38S

$$

VAZ025>031-191600-
SHENANDOAH VALLEY

CITY           SKY/WX    TMP DP  RH WIND       PRES   REMARKS
WINCHESTER*    CLOUDY    43  37  81 S6        30.40R
FRONT ROYAL*   CLOUDY    45  41  87 S3        30.38R
LURAY*         CLOUDY    45  41  87 SW14      30.38R
NEW MARKET*    CLOUDY    45  41  84 SW10      30.38R
STAUNTON*      CLOUDY    43  40  88 S7        30.42S
WAYNESBORO*    CLOUDY    45  42  92 CALM      30.40F

$$

WVZ021-048>050-054>055-191600-
EASTERN WEST VIRGINIA PANHANDLE

CITY           SKY/WX    TMP DP  RH WIND       PRES   REMARKS
MARTINSBURG    CLOUDY    44  37  76 S10       30.38R
PETERSBURG*    CLOUDY    50  42  73 S9        30.31S

$$

VAZ036>039-050-191600-
CENTRAL FOOTHILLS

CITY           SKY/WX    TMP DP  RH WIND       PRES   REMARKS
CHARLOTTESVILL CLOUDY    43  40  89 S7        30.44F
CULPEPER*      CLOUDY    42  37  80 S10       30.47S
ORANGE*        CLOUDY    39  36  87 S9G16     30.45F WCI  33
GORDONSVILLE*  CLOUDY    40  39  97 S8        30.45F WCI  34
WARRENTON*     CLOUDY    42  37  80 S7        30.46S

$$

VAZ055>057-191600-
NORTH AND CENTRAL PIEDMONT

CITY           SKY/WX    TMP DP  RH WIND       PRES   REMARKS
FREDERICKSBRG* CLOUDY    41  41 100 S5        30.48S
STAFFORD*      CLOUDY    42  42 100 S5        30.52S

$$

NCZ024-NYZ072-PAZ021-071-VAZ022-071-191600-
OTHER REGIONAL OBSERVATIONS

CITY           SKY/WX    TMP DP  RH WIND       PRES   REMARKS
NEW YORK CITY  FAIR      46  33  60 VRB5      30.52F
PHILADELPHIA   PTSUNNY   46  36  68 S12       30.49F
PITTSBURGH     LGT RAIN  48  45  89 S8        30.14F
ROANOKE        CLOUDY    41  40  96 SE6       30.47S
RICHMOND       CLOUDY    42  41  96 SE5       30.48S FOG
RALEIGH        CLOUDY    42  41  96 NE3       30.48S FOG

$$

ANZ530>537-191600-
MARINE OBSERVATIONS

STATION/POSITION TIME  TEMP    WIND        PRES
                       AIR SEA DIR/SP/G
                 (UTC) (F)     (DEG/KT/KT) (MB)
THOMAS PT LIGHT  1500   39 38  180/  9/  9   N/A
BALT KEY BRIDGE  1448   39     130/  3/  4 1032.3S
COVE POINT       1448   42     190/  7/  9 1033.1R
LEWISETTA        1448   44 43  190/  8/ 10 1032.2R
SOLOMONS ISLAND  1448   43 40  170/  5/  8 1032.1F

$$





USA.gov is the U.S. government's official web portal to all federal, state and local government web resources and services.